Tracking 21470 objects as of 23-Sep-2020
HD Live streaming from Space Station
objects crossing your sky now

STARLINK-1167

Track STARLINK-1167 now!
10-day predictions
STARLINK-1167 is classified as:


NORAD ID: 45071
Int'l Code: 2020-006AD
Perigee: 555.8 km
Apogee: 557.9 km
Inclination: 53.0 °
Period: 95.6 minutes
Semi major axis: 6927 km
RCS: Unknown
Launch date: January 29, 2020
Source: United States (US)
Launch site: AIR FORCE EASTERN TEST RANGE (AFETR)
aabbcc
Your satellite tracking list
Your tracking list is empty




NASA's NSSDC Master Catalog

Two Line Element Set (TLE):
1 45071U 20006AD  20267.58334491 -.00021362 +00000-0 -14509-2 0  9996
2 45071 052.9991 214.0190 0001534 067.2098 203.2670 15.05591614001756
Source of the keplerian elements: AFSPC